Bellaire, MI

1:23 PM EDT on October 20, 2017 (GMT -0400)
Antrim County

Weather History for KACB - October, 2013

Change the Weather History Date:

Thursday, October 17, 2013

  Actual Average (KCVX) Record (KCVX)
Temperature  
Mean Temperature 46 °F -  
Max Temperature 50 °F 60 °F 74 °F (2012)
Min Temperature 40 °F 43 °F 32 °F (2008)
Degree Days  
Heating Degree Days 20    
Moisture  
Dew Point 43 °F    
Average Humidity 85    
Maximum Humidity 98    
Minimum Humidity 63    
Precipitation  
Precipitation 0.00 in - - ()
Sea Level Pressure  
Sea Level Pressure 29.81 in    
Wind  
Wind Speed 1 mph (WSW)    
Max Wind Speed 6 mph    
Max Gust Speed -    
Visibility 9 miles    
Events Rain    
Averages and records for this station are not official NWS values.
T = Trace of Precipitation, MM = Missing Value Source: NWS Daily Summary

Daily Weather History Graph

Daily Weather History Graph

Search for Another Location

Airport or City:

Trip Planner

Search our weather history database for the weather conditions in past years. The results will help you decide how hot, cold, wet, or windy it might be!

Date:

Astronomy

Oct. 17, 2013 Rise Set
Actual Time 7:59 AM EDT 6:52 PM EDT
Civil Twilight 7:29 AM EDT 7:21 PM EDT
Nautical Twilight 6:55 AM EDT 7:55 PM EDT
Astronomical Twilight 6:21 AM EDT 8:29 PM EDT
Moon 6:07 PM EDT (10/17) 6:28 AM EDT (10/17)
Length of Visible Light 11h 51m
Length of Day
10h 52m
Waxing Gibbous, 98% of the Moon is Illuminated
Oct 17
Waxing Gibbous
Oct 18
Full
Oct 26
Last Quarter
Nov 3
New
Nov 10
First Quarter

Hourly Weather History & Observations

Time (EDT) Temp. Dew Point Humidity Pressure Visibility Wind Dir Wind Speed Gust Speed Precip Events Conditions
12:16 AM 49.3 °F 42.3 °F 77% 29.86 in 10.0 mi West 3.5 mph - N/A   Overcast
12:36 AM 49.3 °F 41.9 °F 76% 29.86 in 10.0 mi NW 4.6 mph - N/A   Overcast
12:56 AM 49.3 °F 42.1 °F 76% 29.86 in 10.0 mi Calm Calm - N/A   Overcast
1:16 AM 49.1 °F 42.1 °F 77% 29.86 in 10.0 mi Calm Calm - N/A   Overcast
1:36 AM 48.9 °F 42.3 °F 78% 29.86 in 10.0 mi NW 4.6 mph - N/A   Overcast
1:56 AM 49.3 °F 42.1 °F 76% 29.86 in 10.0 mi Calm Calm - N/A   Overcast
2:16 AM 49.1 °F 41.9 °F 76% 29.86 in 10.0 mi Calm Calm - N/A   Overcast
2:36 AM 49.1 °F 42.1 °F 77% 29.87 in 10.0 mi Calm Calm - N/A   Overcast
2:56 AM 47.3 °F 43.5 °F 87% 29.86 in 10.0 mi Calm Calm - N/A   Overcast
3:16 AM 46.8 °F 43.9 °F 90% 29.86 in 10.0 mi Calm Calm - N/A   Overcast
3:36 AM 47.3 °F 43.7 °F 87% 29.85 in 10.0 mi Calm Calm - N/A   Overcast
3:56 AM 46.8 °F 44.1 °F 90% 29.85 in 10.0 mi Calm Calm - N/A   Overcast
4:17 AM 46.2 °F 44.1 °F 92% 29.85 in 10.0 mi Calm Calm - N/A   Overcast
4:36 AM 46.4 °F 44.4 °F 93% 29.84 in 10.0 mi Calm Calm - N/A   Overcast
4:56 AM 45.5 °F 43.7 °F 93% 29.83 in 10.0 mi Calm Calm - N/A   Overcast
5:17 AM 44.8 °F 43.5 °F 95% 29.84 in 10.0 mi Calm Calm - N/A   Overcast
5:36 AM 45.3 °F 44.1 °F 95% 29.85 in 10.0 mi Calm Calm - N/A   Overcast
5:56 AM 45.7 °F 44.6 °F 96% 29.85 in 10.0 mi Calm Calm - N/A   Overcast
6:16 AM 45.7 °F 44.4 °F 95% 29.85 in 10.0 mi Calm Calm - N/A   Overcast
6:36 AM 44.4 °F 43.0 °F 95% 29.85 in 7.0 mi Calm Calm - N/A   Scattered Clouds
6:56 AM 42.3 °F 41.2 °F 96% 29.85 in 3.0 mi Calm Calm - N/A   Clear
7:17 AM 42.8 °F 41.9 °F 97% 29.85 in 5.0 mi Calm Calm - N/A   Mostly Cloudy
7:36 AM 41.4 °F 40.5 °F 97% 29.85 in 2.5 mi Calm Calm - N/A   Overcast
7:56 AM 41.9 °F 41.0 °F 97% 29.85 in 4.0 mi Calm Calm - N/A   Overcast
8:17 AM 41.2 °F 40.5 °F 97% 29.85 in 1.5 mi Calm Calm - N/A   Overcast
8:36 AM 41.2 °F 40.5 °F 97% 29.85 in 3.0 mi Calm Calm - N/A   Mostly Cloudy
8:56 AM 41.0 °F 40.3 °F 97% 29.86 in 3.0 mi Calm Calm - N/A   Mostly Cloudy
9:16 AM 41.9 °F 41.2 °F 97% 29.86 in 5.0 mi Calm Calm - N/A   Mostly Cloudy
9:36 AM 43.5 °F 42.8 °F 97% 29.86 in 10.0 mi Calm Calm - N/A   Mostly Cloudy
9:56 AM 45.7 °F 45.1 °F 98% 29.85 in 10.0 mi Calm Calm - N/A   Mostly Cloudy
10:16 AM 48.6 °F 46.9 °F 94% 29.85 in 10.0 mi Calm Calm - N/A   Scattered Clouds
10:36 AM 50.9 °F 41.2 °F 69% 29.83 in 10.0 mi Calm Calm - N/A   Clear
10:57 AM 50.5 °F 39.9 °F 67% 29.83 in 10.0 mi SW 4.6 mph - N/A   Mostly Cloudy
11:16 AM 50.7 °F 38.7 °F 63% 29.83 in 10.0 mi WSW 5.8 mph - N/A   Overcast
11:36 AM 50.9 °F 39.2 °F 64% 29.83 in 10.0 mi SW 3.5 mph - N/A   Overcast
11:57 AM 50.7 °F 39.6 °F 66% 29.82 in 10.0 mi West 3.5 mph - N/A   Overcast
12:16 PM 50.9 °F 39.6 °F 65% 29.82 in 10.0 mi West 3.5 mph - N/A   Overcast
12:36 PM 50.9 °F 39.4 °F 65% 29.82 in 10.0 mi WSW 4.6 mph - N/A   Overcast
12:57 PM 50.5 °F 39.2 °F 65% 29.81 in 10.0 mi WSW 3.5 mph - N/A   Overcast
1:16 PM 50.5 °F 39.2 °F 65% 29.80 in 10.0 mi WSW 3.5 mph - N/A   Overcast
1:36 PM 50.9 °F 40.1 °F 67% 29.79 in 10.0 mi Calm Calm - N/A   Overcast
1:57 PM 50.4 °F 39.6 °F 66% 29.78 in 10.0 mi Calm Calm - N/A   Overcast
2:16 PM 50.4 °F 39.7 °F 67% 29.78 in 10.0 mi Calm Calm - N/A   Overcast
2:36 PM 50.2 °F 39.6 °F 67% 29.78 in 10.0 mi SSW 4.6 mph - N/A   Overcast
2:57 PM 50.4 °F 39.6 °F 66% 29.77 in 10.0 mi Calm Calm - N/A   Overcast
3:16 PM 50.4 °F 39.9 °F 67% 29.77 in 10.0 mi SW 3.5 mph - N/A   Overcast
3:36 PM 50.0 °F 39.9 °F 68% 29.76 in 10.0 mi Calm Calm - N/A   Overcast
3:57 PM 49.1 °F 42.3 °F 77% 29.76 in 10.0 mi Calm Calm - N/A Rain Light Rain
4:16 PM 48.4 °F 44.1 °F 85% 29.75 in 10.0 mi Calm Calm - N/A Rain Light Rain
4:37 PM 47.8 °F 44.6 °F 89% 29.75 in 10.0 mi Calm Calm - N/A Rain Light Rain
4:57 PM 47.7 °F 45.0 °F 90% 29.75 in 5.0 mi Calm Calm - N/A Rain Light Rain
5:16 PM 47.7 °F 45.5 °F 92% 29.75 in 4.0 mi Calm Calm - N/A Rain Light Rain
5:37 PM 46.9 °F 45.5 °F 95% 29.75 in 2.5 mi Calm Calm - N/A Rain Light Rain
5:56 PM 46.9 °F 45.3 °F 94% 29.74 in 10.0 mi SSE 4.6 mph - N/A Rain Light Rain
6:16 PM 46.6 °F 44.8 °F 93% 29.74 in 10.0 mi Calm Calm - N/A   Overcast
6:37 PM 46.4 °F 45.0 °F 95% 29.74 in 10.0 mi Calm Calm - N/A   Overcast
6:56 PM 45.9 °F 44.6 °F 95% 29.75 in 10.0 mi Calm Calm - N/A   Overcast
7:16 PM 45.5 °F 44.2 °F 95% 29.75 in 7.0 mi Calm Calm - N/A   Overcast
7:37 PM 45.9 °F 44.8 °F 96% 29.75 in 10.0 mi Calm Calm - N/A   Overcast
7:56 PM 46.4 °F 45.0 °F 95% 29.75 in 10.0 mi Calm Calm - N/A   Overcast
8:16 PM 46.4 °F 45.0 °F 95% 29.75 in 10.0 mi Calm Calm - N/A   Overcast
8:37 PM 46.0 °F 44.8 °F 95% 29.75 in 10.0 mi Calm Calm - N/A   Overcast
8:56 PM 46.2 °F 45.0 °F 95% 29.75 in 10.0 mi Calm Calm - N/A   Overcast
9:16 PM 46.2 °F 45.1 °F 96% 29.75 in 7.0 mi Calm Calm - N/A   Overcast
9:37 PM 46.4 °F 45.3 °F 96% 29.76 in 10.0 mi Calm Calm - N/A   Overcast
9:56 PM 45.9 °F 44.8 °F 96% 29.76 in 7.0 mi Calm Calm - N/A   Overcast
10:17 PM 46.4 °F 45.3 °F 96% 29.76 in 10.0 mi Calm Calm - N/A   Overcast
10:37 PM 46.4 °F 43.7 °F 90% 29.77 in 10.0 mi Calm Calm - N/A   Overcast
10:56 PM 45.9 °F 43.0 °F 90% 29.77 in 10.0 mi Calm Calm - N/A   Overcast
11:17 PM 45.7 °F 42.1 °F 87% 29.76 in 10.0 mi Calm Calm - N/A   Overcast
11:37 PM 43.9 °F 41.4 °F 91% 29.76 in 10.0 mi Calm Calm - N/A   Mostly Cloudy
11:56 PM 40.5 °F 38.8 °F 94% 29.76 in 2.0 mi Calm Calm - N/A   Clear